Location: Castillon
(43.0896°N, 0.2156°E)
Time: 17:17:40
(UTC+00:00)

Cosmos 2237 Rocket - Pass Details

Date: 16 June 2021
Orbit: 835 x 850 km, 71.0° (Epoch: 03 August)

Event Time Altitude Azimuth Distance (km) Brightness Sun altitude
Exits shadow 23:23:24 54° 182° (S) 1,009 2.2 -23.0°
Maximum altitude 23:24:41 77° 113° (ESE) 861 2.1 -23.0°
Drops below altitude 10° 23:30:18 10° 28° (NNE) 2,453 5.3 -23.2°
Sets 23:32:45 0° 27° (NNE) 3,392 6.2 -23.2°
